| time (UTC) | temp F | wind direction | speed MPH | gust MPH | rain 1hr in | rain 24hr in | rain mn in | humidity % | barometer mb |
| 20260506091054 | 66 | 306 | 1.0 | 4.0 | 0.00 | 0.00 | 0.00 | 75 | 1011.4 |
| 20260506090553 | 66 | 0 | 1.0 | 4.0 | 0.00 | 0.00 | 0.00 | 74 | 1011.6 |
| 20260506090051 | 66 | 13 | 1.0 | 4.0 | 0.00 | 0.00 | 0.00 | 74 | 1011.6 |
| 20260506085553 | 66 | 5 | 0.0 | 7.0 | 0.00 | 0.00 | 0.00 | 74 | 1011.8 |
| 20260506085053 | 66 | 5 | 2.0 | 7.0 | 0.00 | 0.00 | 0.00 | 74 | 1011.6 |
| 20260506084617 | 66 | 5 | 1.0 | 4.0 | 0.00 | 0.00 | 0.00 | 73 | 1011.6 |
| 20260506084050 | 66 | 26 | 1.0 | 5.0 | 0.00 | 0.00 | 0.00 | 73 | 1011.6 |
| 20260506083553 | 66 | 5 | 1.0 | 5.0 | 0.00 | 0.00 | 0.00 | 73 | 1011.6 |
| 20260506083056 | 67 | 9 | 1.0 | 6.0 | 0.00 | 0.00 | 0.00 | 73 | 1011.6 |
| 20260506082553 | 67 | 22 | 1.0 | 7.0 | 0.00 | 0.00 | 0.00 | 72 | 1011.8 |
| 20260506082050 | 67 | 38 | 3.0 | 7.0 | 0.00 | 0.00 | 0.00 | 72 | 1011.8 |
| 20260506081558 | 67 | 5 | 1.0 | 4.0 | 0.00 | 0.00 | 0.00 | 72 | 1011.9 |
| 20260506081053 | 67 | 13 | 1.0 | 5.0 | 0.00 | 0.00 | 0.00 | 72 | 1011.9 |
| 20260506080557 | 67 | 352 | 2.0 | 8.0 | 0.00 | 0.00 | 0.00 | 72 | 1012.1 |
| 20260506073052 | 66 | 87 | 1.0 | 4.0 | 0.00 | 0.00 | 0.00 | 71 | 1012.3 |
| 20260506072550 | 66 | 21 | 1.0 | 4.0 | 0.00 | 0.00 | 0.00 | 71 | 1012.1 |
| 20260506072053 | 66 | 36 | 1.0 | 4.0 | 0.00 | 0.00 | 0.00 | 70 | 1012.0 |
| 20260506071558 | 66 | 5 | 1.0 | 5.0 | 0.00 | 0.00 | 0.00 | 69 | 1011.9 |
| 20260506071050 | 66 | 338 | 1.0 | 6.0 | 0.00 | 0.00 | 0.00 | 68 | 1012.0 |
| 20260506070553 | 66 | 16 | 1.0 | 6.0 | 0.00 | 0.00 | 0.00 | 68 | 1012.1 |
| 20260506062052 | 65 | 0 | 1.0 | 5.0 | 0.00 | 0.00 | 0.00 | 68 | 1012.4 |
| 20260506061554 | 64 | 19 | 1.0 | 5.0 | 0.00 | 0.00 | 0.00 | 66 | 1012.5 |
| 20260506061055 | 64 | 87 | 1.0 | 4.0 | 0.00 | 0.00 | 0.00 | 67 | 1012.7 |
| 20260506060555 | 64 | 0 | 1.0 | 3.0 | 0.00 | 0.00 | 0.00 | 67 | 1013.0 |
| 20260506051050 | 64 | 0 | 1.0 | 3.0 | 0.00 | 0.00 | 0.00 | 64 | 1013.2 |
| 20260506050552 | 64 | 0 | 0.0 | 3.0 | 0.00 | 0.00 | 0.00 | 64 | 1013.3 |
| 20260506045052 | 64 | 0 | 0.0 | 2.0 | 0.00 | 0.00 | 0.00 | 64 | 1013.1 |
| 20260506044554 | 64 | 227 | 0.0 | 1.0 | 0.00 | 0.00 | 0.00 | 64 | 1012.9 |
| 20260506044053 | 64 | 0 | 0.0 | 2.0 | 0.00 | 0.00 | 0.00 | 64 | 1013.0 |
| 20260506043553 | 64 | 0 | 0.0 | 2.0 | 0.00 | 0.00 | 0.00 | 64 | 1013.2 |
| 20260506043058 | 64 | 0 | 0.0 | 2.0 | 0.00 | 0.00 | 0.00 | 64 | 1013.1 |
| 20260506042554 | 64 | 325 | 0.0 | 1.0 | 0.00 | 0.00 | 0.00 | 63 | 1013.3 |
| 20260506042056 | 63 | 0 | 0.0 | 2.0 | 0.00 | 0.00 | 0.00 | 65 | 1013.2 |
| 20260506041606 | 63 | 0 | 0.0 | 3.0 | 0.00 | 0.00 | 0.00 | 64 | 1013.1 |
| 20260506041053 | 63 | 169 | 1.0 | 3.0 | 0.00 | 0.00 | 0.00 | 65 | 1013.1 |
| 20260506040553 | 63 | 0 | 0.0 | 2.0 | 0.00 | 0.00 | 0.00 | 65 | 1013.1 |
| 20260506040058 | 63 | 71 | 0.0 | 2.0 | 0.00 | 0.00 | 0.00 | 67 | 1012.9 |
| 20260506035554 | 63 | 71 | 0.0 | 2.0 | 0.00 | 0.00 | 0.00 | 67 | 1013.1 |
| 20260506035049 | 63 | 0 | 0.0 | 2.0 | 0.00 | 0.00 | 0.00 | 66 | 1013.2 |
| 20260506034557 | 63 | 0 | 0.0 | 2.0 | 0.00 | 0.00 | 0.00 | 68 | 1013.0 |
| 20260506034053 | 63 | 0 | 0.0 | 1.0 | 0.00 | 0.00 | 0.00 | 67 | 1013.3 |
| 20260506033553 | 63 | 71 | 0.0 | 2.0 | 0.00 | 0.00 | 0.00 | 68 | 1013.3 |
| 20260506033054 | 63 | 0 | 0.0 | 4.0 | 0.00 | 0.00 | 0.00 | 70 | 1013.4 |
| 20260506032552 | 63 | 0 | 0.0 | 4.0 | 0.00 | 0.00 | 0.00 | 68 | 1013.2 |
| 20260506032054 | 63 | 16 | 0.0 | 4.0 | 0.00 | 0.00 | 0.00 | 68 | 1013.2 |
| 20260506031556 | 63 | 82 | 0.0 | 4.0 | 0.00 | 0.00 | 0.00 | 68 | 1013.2 |
| 20260506031054 | 62 | 85 | 0.0 | 4.0 | 0.00 | 0.00 | 0.00 | 69 | 1013.2 |
| 20260506030553 | 62 | 17 | 0.0 | 1.0 | 0.00 | 0.00 | 0.00 | 70 | 1013.6 |
| 20260506030100 | 62 | 205 | 0.0 | 1.0 | 0.00 | 0.00 | 0.00 | 71 | 1013.4 |
| 20260506025552 | 62 | 0 | 0.0 | 1.0 | 0.00 | 0.00 | 0.00 | 71 | 1013.3 |
| 20260506025056 | 62 | 0 | 0.0 | 2.0 | 0.00 | 0.00 | 0.00 | 71 | 1013.2 |
| 20260506024552 | 61 | 0 | 0.0 | 2.0 | 0.00 | 0.00 | 0.00 | 71 | 1013.1 |
| 20260506024053 | 61 | 0 | 0.0 | 2.0 | 0.00 | 0.00 | 0.00 | 72 | 1013.2 |
| 20260506023553 | 61 | 0 | 0.0 | 2.0 | 0.00 | 0.00 | 0.00 | 73 | 1013.2 |
| 20260506023108 | 61 | 0 | 0.0 | 2.0 | 0.00 | 0.00 | 0.00 | 73 | 1013.3 |
| 20260506022552 | 61 | 205 | 0.0 | 1.0 | 0.00 | 0.00 | 0.00 | 74 | 1013.1 |
| 20260506022053 | 61 | 0 | 0.0 | 2.0 | 0.00 | 0.00 | 0.00 | 74 | 1013.2 |
| 20260506021611 | 60 | 0 | 0.0 | 2.0 | 0.00 | 0.00 | 0.00 | 75 | 1013.3 |
| 20260506021053 | 60 | 205 | 0.0 | 2.0 | 0.00 | 0.00 | 0.00 | 76 | 1013.2 |
| 20260506020552 | 60 | 205 | 0.0 | 2.0 | 0.00 | 0.00 | 0.00 | 78 | 1013.2 |
| 20260506020054 | 59 | 0 | 0.0 | 2.0 | 0.00 | 0.00 | 0.00 | 79 | 1013.2 |
| 20260506015554 | 59 | 0 | 0.0 | 1.0 | 0.00 | 0.00 | 0.00 | 79 | 1013.0 |
| 20260506015055 | 59 | 205 | 0.0 | 1.0 | 0.00 | 0.00 | 0.00 | 79 | 1013.0 |
| 20260506014551 | 59 | 0 | 0.0 | 1.0 | 0.00 | 0.00 | 0.00 | 80 | 1012.7 |
| 20260506014054 | 59 | 0 | 0.0 | 1.0 | 0.00 | 0.00 | 0.00 | 79 | 1012.5 |
| 20260506013552 | 59 | 0 | 0.0 | 0.0 | 0.00 | 0.00 | 0.00 | 79 | 1012.6 |
| 20260506013100 | 59 | 0 | 0.0 | 2.0 | 0.00 | 0.00 | 0.00 | 79 | 1012.6 |
| 20260506012552 | 59 | 0 | 0.0 | 2.0 | 0.00 | 0.00 | 0.00 | 79 | 1012.5 |
| 20260506012052 | 59 | 0 | 0.0 | 1.0 | 0.00 | 0.00 | 0.00 | 79 | 1012.5 |
| 20260506011615 | 59 | 0 | 0.0 | 1.0 | 0.00 | 0.00 | 0.00 | 80 | 1012.5 |
| 20260506011053 | 59 | 0 | 0.0 | 1.0 | 0.00 | 0.00 | 0.00 | 80 | 1012.7 |
| 20260506010553 | 60 | 0 | 0.0 | 1.0 | 0.00 | 0.00 | 0.00 | 81 | 1012.7 |
| 20260506010057 | 60 | 0 | 0.0 | 1.0 | 0.00 | 0.00 | 0.00 | 81 | 1012.7 |
| 20260506005555 | 60 | 0 | 0.0 | 1.0 | 0.00 | 0.00 | 0.00 | 81 | 1012.9 |
| 20260506005052 | 60 | 0 | 0.0 | 2.0 | 0.00 | 0.00 | 0.00 | 81 | 1012.9 |
| 20260506004554 | 60 | 0 | 0.0 | 2.0 | 0.00 | 0.00 | 0.00 | 81 | 1012.7 |
| 20260506004052 | 61 | 205 | 0.0 | 2.0 | 0.00 | 0.00 | 0.00 | 80 | 1012.7 |
| 20260506003552 | 61 | 0 | 0.0 | 2.0 | 0.00 | 0.00 | 0.00 | 79 | 1012.8 |
| 20260506003058 | 61 | 0 | 0.0 | 2.0 | 0.00 | 0.00 | 0.00 | 78 | 1012.6 |
| 20260506002552 | 61 | 229 | 0.0 | 2.0 | 0.00 | 0.00 | 0.00 | 78 | 1012.9 |
| 20260506002049 | 61 | 0 | 0.0 | 2.0 | 0.00 | 0.00 | 0.00 | 76 | 1013.0 |
| 20260506001607 | 62 | 0 | 0.0 | 2.0 | 0.00 | 0.00 | 0.00 | 76 | 1012.7 |
| 20260506001049 | 62 | 217 | 0.0 | 2.0 | 0.00 | 0.00 | 0.00 | 75 | 1012.8 |
| 20260506000552 | 62 | 0 | 0.0 | 2.0 | 0.00 | 0.00 | 0.00 | 75 | 1012.8 |
| 20260505235553 | 62 | 217 | 0.0 | 2.0 | 0.00 | 0.00 | 0.00 | 77 | 1012.7 |
| 20260505235053 | 62 | 273 | 0.0 | 2.0 | 0.00 | 0.00 | 0.00 | 78 | 1012.9 |
| 20260505234553 | 62 | 0 | 0.0 | 2.0 | 0.00 | 0.00 | 0.00 | 76 | 1012.7 |
| 20260505234050 | 62 | 273 | 0.0 | 2.0 | 0.00 | 0.00 | 0.00 | 76 | 1012.5 |
| 20260505233554 | 62 | 0 | 0.0 | 3.0 | 0.00 | 0.00 | 0.00 | 75 | 1012.3 |
| 20260505233106 | 63 | 0 | 0.0 | 3.0 | 0.00 | 0.00 | 0.00 | 74 | 1012.2 |
| 20260505232552 | 63 | 53 | 0.0 | 2.0 | 0.00 | 0.00 | 0.00 | 73 | 1012.2 |
| 20260505232053 | 64 | 0 | 0.0 | 2.0 | 0.00 | 0.00 | 0.00 | 72 | 1012.6 |
| 20260505231608 | 64 | 0 | 0.0 | 2.0 | 0.00 | 0.00 | 0.00 | 71 | 1012.7 |
| 20260505231049 | 65 | 0 | 0.0 | 2.0 | 0.00 | 0.00 | 0.00 | 70 | 1012.7 |
| 20260505230553 | 66 | 0 | 0.0 | 2.0 | 0.00 | 0.00 | 0.00 | 67 | 1012.7 |
| 20260505230054 | 67 | 28 | 0.0 | 2.0 | 0.00 | 0.00 | 0.00 | 65 | 1012.6 |
| 20260505225552 | 68 | 0 | 0.0 | 4.0 | 0.00 | 0.00 | 0.00 | 61 | 1012.4 |
| 20260505225052 | 69 | 21 | 0.0 | 4.0 | 0.00 | 0.00 | 0.00 | 59 | 1012.3 |
| 20260505224601 | 69 | 352 | 1.0 | 4.0 | 0.00 | 0.00 | 0.00 | 51 | 1012.4 |
| 20260505224049 | 70 | 19 | 0.0 | 3.0 | 0.00 | 0.00 | 0.00 | 49 | 1012.7 |
| 20260505223552 | 70 | 19 | 1.0 | 3.0 | 0.00 | 0.00 | 0.00 | 49 | 1012.9 |
| 20260505223057 | 71 | 0 | 0.0 | 4.0 | 0.00 | 0.00 | 0.00 | 48 | 1012.9 |
| 20260505222554 | 71 | 352 | 1.0 | 4.0 | 0.00 | 0.00 | 0.00 | 42 | 1013.2 |
| 20260505222052 | 71 | 343 | 2.0 | 4.0 | 0.00 | 0.00 | 0.00 | 41 | 1013.2 |
| 20260505221551 | 72 | 336 | 1.0 | 8.0 | 0.00 | 0.00 | 0.00 | 41 | 1013.3 |
| 20260505221052 | 72 | 360 | 3.0 | 8.0 | 0.00 | 0.00 | 0.00 | 40 | 1013.1 |
| 20260505220549 | 72 | 46 | 2.0 | 5.0 | 0.00 | 0.00 | 0.00 | 39 | 1013.1 |
| 20260505220057 | 72 | 331 | 1.0 | 5.0 | 0.00 | 0.00 | 0.00 | 40 | 1013.0 |
| 20260505215553 | 73 | 21 | 3.0 | 5.0 | 0.00 | 0.00 | 0.00 | 39 | 1012.9 |
| 20260505215053 | 73 | 313 | 2.0 | 9.0 | 0.00 | 0.00 | 0.00 | 39 | 1012.8 |
| 20260505214557 | 73 | 5 | 1.0 | 9.0 | 0.00 | 0.00 | 0.00 | 38 | 1013.0 |
| 20260505214053 | 74 | 45 | 3.0 | 9.0 | 0.00 | 0.00 | 0.00 | 38 | 1012.8 |
| 20260505213553 | 74 | 9 | 2.0 | 5.0 | 0.00 | 0.00 | 0.00 | 37 | 1012.4 |
| 20260505213056 | 74 | 360 | 2.0 | 6.0 | 0.00 | 0.00 | 0.00 | 39 | 1012.3 |
| 20260505212554 | 74 | 67 | 2.0 | 9.0 | 0.00 | 0.00 | 0.00 | 37 | 1012.4 |
| 20260505212054 | 75 | 5 | 2.0 | 9.0 | 0.00 | 0.00 | 0.00 | 39 | 1012.3 |
| 20260505211552 | 75 | 34 | 2.0 | 6.0 | 0.00 | 0.00 | 0.00 | 43 | 1012.4 |
| 20260505211053 | 75 | 92 | 1.0 | 8.0 | 0.00 | 0.00 | 0.00 | 41 | 1012.4 |
| 20260505210553 | 76 | 318 | 2.0 | 8.0 | 0.00 | 0.00 | 0.00 | 43 | 1012.5 |
| 20260505210055 | 76 | 313 | 2.0 | 8.0 | 0.00 | 0.00 | 0.00 | 42 | 1012.2 |
| 20260505205554 | 76 | 0 | 1.0 | 6.0 | 0.00 | 0.00 | 0.00 | 42 | 1012.3 |
| 20260505205054 | 76 | 332 | 3.0 | 6.0 | 0.00 | 0.00 | 0.00 | 41 | 1012.4 |
| 20260505204554 | 76 | 317 | 1.0 | 3.0 | 0.00 | 0.00 | 0.00 | 42 | 1012.7 |
| 20260505204054 | 76 | 352 | 1.0 | 4.0 | 0.00 | 0.00 | 0.00 | 41 | 1012.5 |
| 20260505203554 | 76 | 125 | 1.0 | 5.0 | 0.00 | 0.00 | 0.00 | 40 | 1012.5 |
| 20260505203117 | 75 | 0 | 2.0 | 7.0 | 0.00 | 0.00 | 0.00 | 40 | 1012.7 |
| 20260505202557 | 75 | 232 | 2.0 | 10.0 | 0.00 | 0.00 | 0.00 | 39 | 1012.5 |
| 20260505202056 | 75 | 19 | 2.0 | 10.0 | 0.00 | 0.00 | 0.00 | 39 | 1012.6 |
| 20260505201602 | 75 | 338 | 2.0 | 8.0 | 0.00 | 0.00 | 0.00 | 37 | 1012.7 |
| 20260505201054 | 76 | 23 | 3.0 | 8.0 | 0.00 | 0.00 | 0.00 | 37 | 1012.7 |
| 20260505200554 | 76 | 136 | 2.0 | 5.0 | 0.00 | 0.00 | 0.00 | 39 | 1012.6 |
| 20260505200057 | 75 | 5 | 2.0 | 7.0 | 0.00 | 0.00 | 0.00 | 43 | 1012.7 |
| 20260505195555 | 75 | 17 | 2.0 | 8.0 | 0.00 | 0.00 | 0.00 | 42 | 1012.8 |
| 20260505195056 | 75 | 16 | 2.0 | 8.0 | 0.00 | 0.00 | 0.00 | 43 | 1012.8 |
| 20260505194554 | 75 | 38 | 3.0 | 8.0 | 0.00 | 0.00 | 0.00 | 42 | 1012.8 |
| 20260505194054 | 75 | 34 | 3.0 | 12.0 | 0.00 | 0.00 | 0.00 | 44 | 1013.1 |
| 20260505193553 | 76 | 329 | 3.0 | 12.0 | 0.00 | 0.00 | 0.00 | 42 | 1013.2 |
| 20260505193054 | 76 | 22 | 3.0 | 6.0 | 0.00 | 0.00 | 0.00 | 43 | 1013.0 |
| 20260505192557 | 76 | 13 | 1.0 | 5.0 | 0.00 | 0.00 | 0.00 | 45 | 1013.1 |
| 20260505192053 | 76 | 360 | 1.0 | 6.0 | 0.00 | 0.00 | 0.00 | 42 | 1013.0 |
| 20260505191608 | 76 | 302 | 1.0 | 6.0 | 0.00 | 0.00 | 0.00 | 43 | 1013.5 |
| 20260505191055 | 76 | 342 | 2.0 | 6.0 | 0.00 | 0.00 | 0.00 | 41 | 1013.6 |
| 20260505190554 | 76 | 0 | 1.0 | 4.0 | 0.00 | 0.00 | 0.00 | 42 | 1013.9 |
| 20260505190054 | 75 | 17 | 1.0 | 3.0 | 0.00 | 0.00 | 0.00 | 43 | 1014.0 |
| 20260505185554 | 75 | 21 | 1.0 | 6.0 | 0.00 | 0.00 | 0.00 | 41 | 1013.8 |
| 20260505185054 | 75 | 345 | 2.0 | 6.0 | 0.00 | 0.00 | 0.00 | 41 | 1014.0 |
| 20260505184553 | 75 | 5 | 2.0 | 4.0 | 0.00 | 0.00 | 0.00 | 41 | 1013.8 |
| 20260505184055 | 74 | 360 | 1.0 | 9.0 | 0.00 | 0.00 | 0.00 | 42 | 1013.9 |
| 20260505183555 | 74 | 44 | 2.0 | 9.0 | 0.00 | 0.00 | 0.00 | 38 | 1014.0 |
| 20260505183058 | 74 | 338 | 3.0 | 9.0 | 0.00 | 0.00 | 0.00 | 38 | 1014.0 |
| 20260505182633 | 74 | 355 | 2.0 | 9.0 | 0.00 | 0.00 | 0.00 | 39 | 1014.2 |
| 20260505182053 | 74 | 17 | 2.0 | 8.0 | 0.00 | 0.00 | 0.00 | 38 | 1014.3 |
| 20260505181555 | 74 | 250 | 3.0 | 8.0 | 0.00 | 0.00 | 0.00 | 38 | 1014.2 |
| 20260505181054 | 75 | 326 | 3.0 | 5.0 | 0.00 | 0.00 | 0.00 | 39 | 1014.3 |
| 20260505180553 | 74 | 43 | 2.0 | 5.0 | 0.00 | 0.00 | 0.00 | 40 | 1014.4 |
| 20260505180100 | 74 | 20 | 1.0 | 8.0 | 0.00 | 0.00 | 0.00 | 40 | 1014.6 |
| 20260505175554 | 74 | 53 | 3.0 | 8.0 | 0.00 | 0.00 | 0.00 | 37 | 1014.6 |
| 20260505175054 | 74 | 323 | 3.0 | 5.0 | 0.00 | 0.00 | 0.00 | 39 | 1014.6 |
| 20260505174555 | 74 | 352 | 2.0 | 7.0 | 0.00 | 0.00 | 0.00 | 39 | 1014.7 |
| 20260505174054 | 73 | 330 | 2.0 | 7.0 | 0.00 | 0.00 | 0.00 | 40 | 1014.9 |
| 20260505173554 | 74 | 59 | 3.0 | 6.0 | 0.00 | 0.00 | 0.00 | 39 | 1015.0 |
| 20260505173059 | 73 | 345 | 2.0 | 5.0 | 0.00 | 0.00 | 0.00 | 41 | 1015.0 |
| 20260505172553 | 73 | 65 | 1.0 | 4.0 | 0.00 | 0.00 | 0.00 | 40 | 1015.2 |
| 20260505172053 | 72 | 22 | 1.0 | 8.0 | 0.00 | 0.00 | 0.00 | 41 | 1015.3 |
| 20260505171557 | 72 | 11 | 3.0 | 8.0 | 0.00 | 0.00 | 0.00 | 39 | 1015.2 |
| 20260505171054 | 72 | 313 | 3.0 | 6.0 | 0.00 | 0.00 | 0.00 | 37 | 1015.3 |
| 20260505170554 | 73 | 266 | 1.0 | 7.0 | 0.00 | 0.00 | 0.00 | 39 | 1015.3 |
| 20260505170109 | 73 | 340 | 3.0 | 7.0 | 0.00 | 0.00 | 0.00 | 40 | 1015.1 |
| 20260505165553 | 73 | 163 | 2.0 | 7.0 | 0.00 | 0.00 | 0.00 | 47 | 1015.3 |
| 20260505165057 | 73 | 323 | 2.0 | 8.0 | 0.00 | 0.00 | 0.00 | 48 | 1015.1 |
| 20260505164557 | 72 | 9 | 1.0 | 8.0 | 0.00 | 0.00 | 0.00 | 48 | 1015.2 |
| 20260505164053 | 72 | 338 | 2.0 | 8.0 | 0.00 | 0.00 | 0.00 | 50 | 1015.4 |
| 20260505163553 | 72 | 157 | 1.0 | 8.0 | 0.00 | 0.00 | 0.00 | 48 | 1015.3 |
| 20260505163053 | 72 | 52 | 2.0 | 7.0 | 0.00 | 0.00 | 0.00 | 47 | 1015.5 |
| 20260505162553 | 72 | 0 | 1.0 | 4.0 | 0.00 | 0.00 | 0.00 | 49 | 1015.5 |
| 20260505162057 | 72 | 313 | 1.0 | 4.0 | 0.00 | 0.00 | 0.00 | 49 | 1015.5 |
| 20260505161614 | 71 | 321 | 1.0 | 10.0 | 0.00 | 0.00 | 0.00 | 50 | 1015.6 |
| 20260505161055 | 71 | 352 | 2.0 | 10.0 | 0.00 | 0.00 | 0.00 | 47 | 1015.5 |
| 20260505160555 | 71 | 315 | 2.0 | 10.0 | 0.00 | 0.00 | 0.00 | 47 | 1015.6 |
| 20260505153106 | 70 | 352 | 3.0 | 10.0 | 0.00 | 0.00 | 0.00 | 49 | 1015.5 |
| 20260505152554 | 70 | 341 | 3.0 | 9.0 | 0.00 | 0.00 | 0.00 | 47 | 1015.5 |
| 20260505152053 | 70 | 333 | 3.0 | 8.0 | 0.00 | 0.00 | 0.00 | 46 | 1015.7 |
| 20260505151604 | 70 | 57 | 2.0 | 5.0 | 0.00 | 0.00 | 0.00 | 49 | 1015.6 |
| 20260505151053 | 70 | 355 | 1.0 | 4.0 | 0.00 | 0.00 | 0.00 | 54 | 1015.8 |
| 20260505150551 | 70 | 88 | 1.0 | 4.0 | 0.00 | 0.00 | 0.00 | 53 | 1015.8 |
| 20260505140554 | 63 | 0 | 0.0 | 0.0 | 0.00 | 0.00 | 0.00 | 75 | 1016.0 |
| 20260505130110 | 55 | 0 | 0.0 | 0.0 | 0.00 | 0.00 | 0.00 | 86 | 1015.3 |
| 20260505124608 | 53 | 0 | 0.0 | 0.0 | 0.00 | 0.00 | 0.00 | 87 | 1015.3 |
| 20260505124055 | 53 | 0 | 0.0 | 0.0 | 0.00 | 0.00 | 0.00 | 87 | 1015.3 |
| 20260505123553 | 53 | 0 | 0.0 | 0.0 | 0.00 | 0.00 | 0.00 | 88 | 1015.2 |
| 20260505123106 | 52 | 0 | 0.0 | 0.0 | 0.00 | 0.00 | 0.00 | 90 | 1015.2 |
| 20260505122553 | 51 | 0 | 0.0 | 0.0 | 0.00 | 0.00 | 0.00 | 92 | 1015.2 |
| 20260505122053 | 50 | 0 | 0.0 | 0.0 | 0.00 | 0.00 | 0.00 | 91 | 1015.1 |
| 20260505121620 | 50 | 0 | 0.0 | 0.0 | 0.00 | 0.00 | 0.00 | 92 | 1014.9 |
| 20260505121054 | 49 | 0 | 0.0 | 0.0 | 0.00 | 0.00 | 0.00 | 91 | 1015.1 |
| 20260505120620 | 48 | 0 | 0.0 | 0.0 | 0.00 | 0.00 | 0.00 | 91 | 1015.1 |
| 20260505120056 | 48 | 0 | 0.0 | 0.0 | 0.00 | 0.00 | 0.00 | 91 | 1015.0 |
| 20260505115557 | 47 | 0 | 0.0 | 0.0 | 0.00 | 0.00 | 0.00 | 90 | 1014.9 |
| 20260505115057 | 47 | 0 | 0.0 | 0.0 | 0.00 | 0.00 | 0.00 | 90 | 1014.9 |
| 20260505114555 | 47 | 0 | 0.0 | 0.0 | 0.00 | 0.00 | 0.00 | 89 | 1014.9 |
| 20260505114054 | 47 | 0 | 0.0 | 0.0 | 0.00 | 0.00 | 0.00 | 90 | 1014.7 |
| 20260505113554 | 47 | 0 | 0.0 | 0.0 | 0.00 | 0.00 | 0.00 | 89 | 1014.4 |
| 20260505113053 | 47 | 0 | 0.0 | 0.0 | 0.00 | 0.00 | 0.00 | 89 | 1014.6 |
| 20260505112554 | 47 | 0 | 0.0 | 0.0 | 0.00 | 0.00 | 0.00 | 89 | 1014.5 |
| 20260505112054 | 47 | 0 | 0.0 | 0.0 | 0.00 | 0.00 | 0.00 | 89 | 1014.6 |
| 20260505111553 | 47 | 0 | 0.0 | 0.0 | 0.00 | 0.00 | 0.00 | 89 | 1014.5 |
| 20260505111054 | 47 | 0 | 0.0 | 0.0 | 0.00 | 0.00 | 0.00 | 88 | 1014.5 |
| 20260505110555 | 47 | 0 | 0.0 | 0.0 | 0.00 | 0.00 | 0.00 | 88 | 1014.4 |
| 20260505102054 | 47 | 0 | 0.0 | 0.0 | 0.00 | 0.00 | 0.00 | 86 | 1014.3 |
| 20260505101557 | 47 | 0 | 0.0 | 0.0 | 0.00 | 0.00 | 0.00 | 86 | 1014.3 |
| 20260505101054 | 48 | 0 | 0.0 | 0.0 | 0.00 | 0.00 | 0.00 | 86 | 1014.4 |
| 20260505100554 | 48 | 0 | 0.0 | 0.0 | 0.00 | 0.00 | 0.00 | 85 | 1014.3 |
| 20260505100101 | 48 | 0 | 0.0 | 0.0 | 0.00 | 0.00 | 0.00 | 85 | 1014.2 |
| 20260505095555 | 48 | 0 | 0.0 | 0.0 | 0.00 | 0.00 | 0.00 | 84 | 1014.3 |
| 20260505095053 | 48 | 0 | 0.0 | 0.0 | 0.00 | 0.00 | 0.00 | 83 | 1014.3 |
| 20260505094555 | 49 | 0 | 0.0 | 0.0 | 0.00 | 0.00 | 0.00 | 83 | 1014.3 |
| 20260505094053 | 49 | 0 | 0.0 | 0.0 | 0.00 | 0.00 | 0.00 | 82 | 1014.2 |
| 20260505093554 | 49 | 0 | 0.0 | 0.0 | 0.00 | 0.00 | 0.00 | 81 | 1014.1 |
| 20260505093054 | 50 | 0 | 0.0 | 0.0 | 0.00 | 0.00 | 0.00 | 80 | 1014.2 |
| 20260505092556 | 50 | 0 | 0.0 | 0.0 | 0.00 | 0.00 | 0.00 | 80 | 1014.2 |
| 20260505092054 | 51 | 0 | 0.0 | 0.0 | 0.00 | 0.00 | 0.00 | 79 | 1014.2 |
| 20260505091552 | 51 | 0 | 0.0 | 0.0 | 0.00 | 0.00 | 0.00 | 78 | 1014.3 |